Flight Track Log - Related Links

Times and Time Zones

All times are in EDT time to prevent confusion due to time zone crossing. See the JUS827 flight status page for this flight to view local times or setup timezone preferences in your user account.

Time Position Orientation Groundspeed Altitude Reporting Facility
EDT Latitude Longitude Course Direction KTS MPH feet Rate Location/Type
Fri 12:18:35 PM 41.3978 -82.2383 342° North 194 223 3,600  Level Cleveland Center
Fri 12:19:36 PM 41.4578 -82.2594 345° North 266 306 6,000 3,255 Climbing Cleveland Center
Fri 12:20:09 PM 41.4864 -82.2906 321° Northwest 253 291 8,700 2,516 Climbing Cleveland Center
Fri 12:21:09 PM 41.5439 -82.3503 322° Northwest 254 292 9,900 709 Climbing Cleveland Center
Fri 12:21:59 PM 41.6036 -82.4047 326° Northwest 301 346 10,000 100 Climbing Cleveland Center
Fri 12:22:09 PM 41.6036 -82.4047 326° Northwest 274 315 10,000 316 Level Cleveland Center
Fri 12:22:18 PM 41.6242 -82.4247 324° Northwest 312 359 10,100  Climbing Cleveland Center
Fri 12:23:09 PM 41.6858 -82.4739 329° Northwest 292 336 10,000 -54 Descending Cleveland Center
Fri 12:24:09 PM 41.7556 -82.5483 321° Northwest 311 358 10,000 50 Level Cleveland Center
Fri 12:25:09 PM 41.8208 -82.6311 317° Northwest 322 371 10,100 -173 Climbing Cleveland Center
Fri 12:26:28 PM 41.9106 -82.7289 321° Northwest 304 350 9,600 -650 Descending Cleveland Center
Fri 12:27:09 PM 41.9472 -82.7747 317° Northwest 306 352 8,800 -1,377 Descending Cleveland Center
Fri 12:27:29 PM 41.9658 -82.7950 321° Northwest 249 287 8,200 -1,500 Descending Cleveland Center
Fri 12:28:09 PM 41.9942 -82.8378 312° West 270 311 7,300 -1,279 Descending Cleveland Center
Fri 12:28:30 PM 42.0144 -82.8581 323° Northwest 233 268 6,900 -1,400 Descending Cleveland Center
Fri 12:29:09 PM 42.0450 -82.8983 316° Northwest 247 284 5,900 -1,452 Descending Cleveland Center
Fri 12:29:32 PM 42.0611 -82.9214 313° West 242 278 5,400 -900 Descending Cleveland Center
Fri 12:30:09 PM 42.0811 -82.9667 301° West 237 273 5,000 -393 Descending Cleveland Center
Fri 12:30:33 PM 42.0950 -82.9953 303° West 214 246 5,000  Level Cleveland Center
Fri 12:31:09 PM 42.1150 -83.0381 302° West 227 261 5,000  Level Cleveland Center
Fri 12:31:34 PM 42.1308 -83.0722 302° West 249 287 5,000  Level Cleveland Center
Fri 12:32:35 PM 42.1667 -83.1550 300° West 244 281 5,000  Level Cleveland Center
Fri 12:33:37 PM 42.1983 -83.2236 302° West 202 232 5,000  Level Cleveland Center
Fri 12:34:38 PM 42.2264 -83.2836 302° West 180 207 5,000  Level Cleveland Center
Fri 12:35:39 PM 42.2539 -83.3436 302° West 182 209 5,000 -885 Level Cleveland Center
Fri 12:36:40 PM 42.2839 -83.4067 303° West 207 238 3,200 -1,512 Descending Cleveland Center
Fri 12:37:42 PM 42.2758 -83.4736 261° West 151 174 1,900 -1,073 Descending Cleveland Center
Fri 12:38:43 PM 42.2519 -83.5119 230° Southwest 119 137 1,000 -885 Descending Cleveland Center
Fri 12:40:00 PM 42.2333 -83.5167 312° West  Level FlightAware

Login

Don't have an account? Register now (free) for customized features, flight alerts, and more!